S-NET C

Last updated on Fri Jun 19 2026 20:04:31 GMT+0000 (Coordinated Universal Time)

1 43189U 18014K 26170.58847393 .00003721 00000+0 19345-3 0 9999 2 43189 97.5391 75.6349 0010208 9.9482 350.1951 15.16653747457676
UTC large
Height (km)
Speed (km/s)
/
Latitude / Longitude
Inclination (degrees)
Orbital Period (minutes)
Azimuth
Elevation
Range (km)
Doppler Factor

Next 0 passes for location: London (51.5072 / 0.1276)

Sorry there are no passes over London.
S-NET C